{"data":{"norad_id":49210,"intl_designator":"2021-083AA","name":"ONEWEB-0344","alt_names":[],"object_type":"PAYLOAD","status":"ACTIVE","operator":null,"country":"UK","launch_date":"2021-09-14","launch_site_code":"TYMSC","launch_vehicle":null,"mission":null,"orbit_class":"UNKNOWN","rcs_meters":null,"size_class":null,"mass_kg":null,"dimensions":null,"purposes":["comms"],"wikipedia_slug":null,"has_3d_model":false,"image_url":null,"decayed_at":null,"tle_current":{"epoch":"2026-09-20T00:53:28.375008Z","epoch_age_seconds":51184,"freshness":"FRESH","line1":"1 49210U 21083AA  26263.03713397  .00000140  00000+0  34854-3 0  9993","line2":"2 49210  87.8912 301.3638 0001629 105.6176 254.5133 13.13468567243344","mean_motion":13.13468567,"eccentricity":0.0001629,"inclination_deg":87.8912,"raan_deg":301.3638,"arg_perigee_deg":105.6176,"mean_anomaly_deg":254.5133,"bstar":0.00034854,"rev_number":24334,"period_min":109.63338112377,"perigee_km":1208.5348486559,"apogee_km":1211.0069890559,"semimajor_km":7587.9079188559,"source":"CELESTRAK","updated_at":"2026-09-20T09:00:44.665600Z"}}}